Location: Home
(42.5358°N, 72.7383°W)
Time: 05:53:17
(UTC-05:00)

A-11 Canister half - Pass Details

Date: 01 December 2021
Orbit: 1524 x 1684 km, 47.3° (Epoch: 17 January)

Event Time Altitude Azimuth Distance (km) Brightness Sun altitude
Exits shadow 01:21:34 17° 73° (ENE) 3,387 11.0 -60.4°
Drops below altitude 10° 01:23:24 10° 68° (ENE) 3,912 11.4 -60.1°
Sets 01:26:39 0° 64° (ENE) 4,884 12.1 -59.6°
